Weather Roundup
Issued by NWS Springfield, MO

Home | Current Version | Previous Version | Text Only | Print | Product List | Glossary On
Versions: 1 2 3 4 5 6 7 8 9 10 11 12 13 14 15 16 17 18 19 20 21 22 23 24 25 26 27 28 29 30 31 32 33 34 35 36 37 38 39 40 41 42 43 44 45 46 47 48 49 50
000
NZUS99 KSGF 220107
HRRSGF

HOURLY WEATHER
NATIONAL WEATHER SERVICE SPRINGFIELD MO
800 PM CDT SAT APR 21 2018

......SGF CWA......

CITY           SKY/WX    TMP DP  RH WIND       PRES   REMARKS
SPRINGFIELD    LGT RAIN  61  42  49 E7        30.06R
JOPLIN         LGT RAIN  53  53 100 NW7       30.09S
WEST PLAINS    CLOUDY    64  35  34 E8        30.09F
ROLLA          CLOUDY    61  34  36 E12       30.13F
OSAGE BEACH    CLOUDY    63  34  33 NE16      30.08F
BRANSON        CLOUDY    61  43  51 E3        30.05R

......SURROUNDING SGF CWA......

CITY           SKY/WX    TMP DP  RH WIND       PRES   REMARKS
CHANUTE        LGT RAIN  47  45  93 N10       30.11F
PARSONS        CLOUDY    47  46  97 N9        30.09F
COFFEYVILLE    CLOUDY    48  46  93 N12       30.08F
EMPORIA        LGT RAIN  44  42  93 N7        30.14S FOG
GROVE OK       DRIZZLE   52  52 100 N6        30.08S
ROGERS AR      LGT RAIN  52  51  97 N3        30.07R
SILOAM SPRINGS LGT RAIN  51  50  96 N8        30.06F
HARRISON AR    CLOUDY    61  43  51 SE9       30.04S
NEAR YELLVILLE CLOUDY    64  43  46 E6        30.05R

......KANSAS AND MISSOURI......

CITY           SKY/WX    TMP DP  RH WIND       PRES   REMARKS
KANSAS CTY INT CLOUDY    60  28  29 E12G23    30.13R
DOWNTOWN KC    CLOUDY    63  28  26 E15G24    30.11R
COLUMBIA       CLOUDY    61  30  31 NE13      30.14S
SEDALIA        CLOUDY    61  29  29 NE14      30.11F
ST JOSEPH      CLOUDY    59  30  33 NE13      30.16R
ST LOUIS       CLOUDY    62  33  33 E12       30.20F
SPIRIT OF STL  CLOUDY    62  34  35 E15       30.17S
KIRKSVILLE     CLOUDY    55  31  39 E10       30.21F
WICHITA        LGT RAIN  45  45 100 N9        30.13S FOG
TOPEKA         CLOUDY    50  44  80 NW9       30.13S
OLATHE         CLOUDY    60  33  36 E6        30.11R

......TENNESSEE......

CITY           SKY/WX    TMP DP  RH WIND       PRES   REMARKS
MEMPHIS        CLOUDY    71  47  42 SE7       30.10R
NASHVILLE      MOCLDY    68  31  25 SE6       30.18R

......ARKANSAS.......

CITY           SKY/WX    TMP DP  RH WIND       PRES   REMARKS
FAYETTEVILLE   LGT RAIN  54  53  97 CALM      30.06R
FT SMITH       LGT RAIN  57  56  96 N3        30.02S FOG
LITTLE ROCK    CLOUDY    66  50  56 SE8       30.03R

......OKLAHOMA.......

CITY           SKY/WX    TMP DP  RH WIND       PRES   REMARKS
TULSA          CLOUDY    51  50  96 N13       30.06S
PONCA CITY     CLOUDY    47  44  90 N8        30.11R
MCALESTER      CLOUDY    53  52  96 NE6       30.01S FOG
OKLAHOMA CITY  DRIZZLE   48  47  96 N10       30.06R FOG

......IOWA............

CITY           SKY/WX    TMP DP  RH WIND       PRES   REMARKS
DES MOINES     CLOUDY    56  24  29 E8        30.27R
QUAD CITIES    FAIR      55  32  41 E15       30.31S

......ILLINOIS........

CITY           SKY/WX    TMP DP  RH WIND       PRES   REMARKS
QUINCY         CLOUDY    58  28  32 E8        30.25R
CHICAGO        CLOUDY    48  17  29 E7        30.36S




USA.gov is the U.S. government's official web portal to all federal, state and local government web resources and services.